This demonstration page uses our WeatherBlox Daily Observations layout. Learn more.

Left ArrowRight Arrow

39.95238, -75.16362

Hourly Observations for April 17, 2015

Temp ( °F °C ) Dew Point ( °F °C ) Humidity (%) Winds ( mph kmh ) Pressure ( in mb ) Visibility ( mi km ) Precip ( " mm )
12:54 am 00:54 Cloudy 60 15.6 48 8.9 65 65 S 12 19 30.25 1024 10 16 0.00 0.00
1:54 am 01:54 Cloudy with Light Rain 59 15 49 9.4 69 69 SSW 9 15 30.22 1023 10 16 0.00 0.03
2:54 am 02:54 Cloudy with Light Rain 57 13.9 50 10 78 78 SSW 5 7 30.19 1023 10 16 0.02 0.51
3:04 am 03:04 Cloudy with Light Rain 57 13.9 51 10.6 81 81 SSW 3 6 30.18 1022 8 13 0.00 0.03
3:54 am 03:54 Cloudy with Light Rain 56 13.3 51 10.6 84 84 S 3 6 30.17 1022 8 13 0.02 0.51
4:54 am 04:54 Cloudy with Light Rain 55 12.8 52 11.1 90 90 SSW 7 11 30.16 1021 7 11 0.05 1.27
5:54 am 05:54 Cloudy 56 13.3 52 11.1 87 87 S 9 15 30.14 1021 10 16 0.01 0.25
6:12 am 06:12 Cloudy with Light Rain 55 13 54 12 94 94 SSW 8 13 30.15 1021 7 11 0.00 0.00
6:15 am 06:15 Cloudy with Light Rain 56 13.3 53 11.7 90 90 SSW 8 13 30.15 1021 5 8 0.00 0.03
6:18 am 06:18 Cloudy with Light Rain 56 13.3 53 11.7 90 90 SSW 8 13 30.15 1021 3 5 0.00 0.03
6:46 am 06:46 Cloudy with Light Rain 56 13.3 53 11.7 90 90 SSW 9 15 30.15 1021 3 4 0.02 0.51
6:54 am 06:54 Cloudy with Light Rain 56 13.3 53 11.7 90 90 SSW 9 15 30.14 1021 3 4 0.02 0.51
6:57 am 06:57 Cloudy with Light Rain 56 13.3 53 11.7 90 90 SSW 8 13 30.15 1021 2 2 0.01 0.25
7:19 am 07:19 Cloudy with Light Rain 56 13.3 54 12.2 93 93 S 8 13 30.15 1021 3 5 0.02 0.51
7:52 am 07:52 Cloudy 55 13 54 12 94 94 SSW 8 13 30.12 1020 7 11 0.00 0.00
7:54 am 07:54 Cloudy 57 13.9 54 12.2 90 90 SSW 9 15 30.13 1020 9 14 0.03 0.76
8:54 am 08:54 Cloudy with Light Rain 57 13.9 55 12.8 93 93 SW 8 13 30.11 1020 9 14 0.00 0.03
9:54 am 09:54 Cloudy 58 14.4 55 12.8 90 90 SW 10 17 30.09 1019 10 16 0.00 0.03
10:54 am 10:54 Cloudy 60 15.6 56 13.3 86 86 SW 13 20 30.07 1018 10 16 0.00 0.00
11:14 am 11:14 Cloudy 61 16.1 57 13.9 87 87 SW 12 19 30.06 1018 10 16 0.00 0.00
11:54 am 11:54 Mostly Cloudy 63 17.2 57 13.9 81 81 SW 14 22 30.06 1018 10 16 0.00 0.00
12:20 pm 12:20 Mostly Cloudy 64 18 57 14 78 78 WSW 17 28 30.06 1018 10 16 0.00 0.00
12:26 pm 12:26 Mostly Cloudy 66 18.9 57 13.9 73 73 WSW 15 24 30.03 1017 10 16 0.00 0.00
12:54 pm 12:54 Partly Cloudy 66 18.9 57 13.9 73 73 WSW 12 19 30.02 1017 10 16 0.00 0.00
1:54 pm 13:54 Mostly Cloudy 69 20.6 56 13.3 63 63 SW 9 15 30.00 1016 10 16 0.00 0.00
2:54 pm 14:54 Mostly Cloudy 72 22.2 57 13.9 59 59 SW 6 9 29.97 1015 10 16 0.00 0.00
3:54 pm 15:54 Partly Cloudy 74 23.3 57 13.9 56 56 WSW 9 15 29.96 1014 10 16 0.00 0.00
4:54 pm 16:54 Mostly Cloudy 73 22.8 57 13.9 57 57 W 8 13 29.94 1014 10 16 0.00 0.00
5:54 pm 17:54 Mostly Cloudy 73 22.8 57 13.9 57 57 SW 8 13 29.93 1014 10 16 0.00 0.00
6:54 pm 18:54 Mostly Cloudy 73 22.8 58 14.4 59 59 SW 9 15 29.93 1014 10 16 0.00 0.00
7:54 pm 19:54 Mostly Cloudy 71 21.7 58 14.4 63 63 SW 6 9 29.94 1014 10 16 0.00 0.00
8:54 pm 20:54 Mostly Cloudy 69 20.6 58 14.4 68 68 SW 7 11 29.96 1015 10 16 0.00 0.00
9:54 pm 21:54 Partly Cloudy 66 18.9 58 14.4 75 75 WSW 6 9 29.98 1015 10 16 0.00 0.00
10:54 pm 22:54 Partly Cloudy 65 18.3 57 13.9 76 76 SW 7 11 29.97 1015 10 16 0.00 0.00
11:54 pm 23:54 Partly Cloudy 64 17.8 58 14.4 81 81 Calm 29.98 1015 10 16 0.00 0.00

Powered by AerisWeather